Daily Data: Northwest Mesa

   
8/23/17
Time         Wind Dir   Wind Spd  Wind Gust   Humidity       Temp  Dew Point   Barom SL  DailyRain   HourRain   RainRate
                            mph        mph          %         F         F         in         in         in      in/hr
12:00am           311          0          0         29       88.4       52.1      29.75       0.00       0.00      0.000
12:05am           312          0          0         28       88.2       51.0      29.75       0.00       0.00      0.000
12:10am           312          0          0         27       88.2       50.0      29.75       0.00       0.00      0.000
12:15am           312          0          0         28       88.2       51.0      29.75       0.00       0.00      0.000
12:20am           312          0          0         29       88.2       52.0      29.75       0.00       0.00      0.000
12:25am           312          0          0         28       88.0       50.8      29.75       0.00       0.00      0.000
12:30am           312          0          0         28       87.8       50.7      29.75       0.00       0.00      0.000
12:35am           311          0          0         28       87.6       50.5      29.75       0.00       0.00      0.000
12:40am           311          0          0         28       87.4       50.3      29.75       0.00       0.00      0.000
12:45am           312          0          0         29       87.2       51.1      29.75       0.00       0.00      0.000
12:50am           312          0          0         30       87.0       51.9      29.75       0.00       0.00      0.000
12:55am           311          0          0         30       86.7       51.6      29.75       0.00       0.00      0.000
1:00am            312          0          0         31       86.7       52.5      29.75       0.00       0.00      0.000
1:05am            312          0          0         30       86.7       51.6      29.75       0.00       0.00      0.000
1:10am            312          0          0         30       87.0       51.9      29.75       0.00       0.00      0.000
1:15am            311          0          0         31       87.0       52.7      29.75       0.00       0.00      0.000
1:20am            312          0          0         31       86.7       52.5      29.75       0.00       0.00      0.000
1:25am            311          1          1         31       86.7       52.5      29.75       0.00       0.00      0.000
1:30am            189          1          5         28       87.2       50.2      29.76       0.00       0.00      0.000
1:35am            191          0          3         28       87.6       50.5      29.76       0.00       0.00      0.000
1:40am            191          1          2         28       88.0       50.8      29.76       0.00       0.00      0.000
1:45am            191          0          1         28       88.2       51.0      29.76       0.00       0.00      0.000
1:50am            191          0          0         28       88.2       51.0      29.76       0.00       0.00      0.000
1:55am            191          0          0         29       87.8       51.6      29.76       0.00       0.00      0.000
2:00am            191          0          0         30       87.6       52.4      29.76       0.00       0.00      0.000
2:05am            191          0          0         30       87.2       52.0      29.76       0.00       0.00      0.000
2:10am            191          0          0         31       86.7       52.5      29.76       0.00       0.00      0.000
2:15am            191          0          0         33       86.3       53.8      29.76       0.00       0.00      0.000
2:20am            191          0          0         33       85.9       53.5      29.76       0.00       0.00      0.000
2:25am            191          0          0         33       85.7       53.3      29.76       0.00       0.00      0.000
2:30am            191          0          0         34       85.5       54.0      29.76       0.00       0.00      0.000
2:35am            191          0          0         35       85.1       54.4      29.76       0.00       0.00      0.000
2:40am            191          0          0         35       84.9       54.2      29.76       0.00       0.00      0.000
2:45am            191          0          0         36       84.7       54.8      29.76       0.00       0.00      0.000
2:50am            191          0          0         36       84.7       54.8      29.76       0.00       0.00      0.000
2:55am            191          0          1         36       84.5       54.6      29.76       0.00       0.00      0.000
3:00am            191          0          0         36       84.3       54.5      29.76       0.00       0.00      0.000
3:05am            191          0          0         35       84.1       53.5      29.76       0.00       0.00      0.000
3:10am            191          0          0         36       84.0       54.2      29.76       0.00       0.00      0.000
3:15am            191          0          0         36       84.0       54.2      29.76       0.00       0.00      0.000
3:20am            191          0          0         37       83.8       54.8      29.76       0.00       0.00      0.000
3:25am            191          0          0         37       83.8       54.8      29.76       0.00       0.00      0.000
3:30am            191          0          0         38       83.6       55.3      29.76       0.00       0.00      0.000
3:35am            191          0          0         38       83.6       55.3      29.76       0.00       0.00      0.000
3:40am            191          0          0         38       83.4       55.2      29.76       0.00       0.00      0.000
3:45am            191          0          0         38       83.6       55.3      29.76       0.00       0.00      0.000
3:50am            191          0          0         39       83.6       56.1      29.76       0.00       0.00      0.000
3:55am            191          0          0         39       83.4       55.9      29.76       0.00       0.00      0.000
4:00am            191          0          0         40       83.4       56.6      29.76       0.00       0.00      0.000
4:05am            191          0          0         40       83.2       56.4      29.76       0.00       0.00      0.000
4:10am            191          0          0         40       83.0       56.2      29.76       0.00       0.00      0.000
4:15am            191          0          0         40       83.0       56.2      29.76       0.00       0.00      0.000
4:20am            191          0          0         39       83.2       55.7      29.76       0.00       0.00      0.000
4:25am            191          0          0         39       83.0       55.5      29.76       0.00       0.00      0.000
4:30am            191          0          0         40       83.2       56.4      29.77       0.00       0.00      0.000
4:35am            191          0          0         39       83.2       55.7      29.77       0.00       0.00      0.000
4:40am            191          0          0         38       83.2       55.0      29.77       0.00       0.00      0.000
4:45am            191          0          0         39       83.2       55.7      29.77       0.00       0.00      0.000
4:50am            191          0          0         39       83.2       55.7      29.77       0.00       0.00      0.000
4:55am            191          0          0         38       83.2       55.0      29.77       0.00       0.00      0.000
5:00am            191          0          0         38       83.0       54.8      29.77       0.00       0.00      0.000
5:05am            191          0          0         38       82.8       54.6      29.77       0.00       0.00      0.000
5:10am            191          0          0         38       82.8       54.6      29.77       0.00       0.00      0.000
5:15am            191          0          0         38       82.6       54.4      29.78       0.00       0.00      0.000
5:20am            191          0          0         38       82.4       54.3      29.78       0.00       0.00      0.000
5:25am            191          0          0         39       82.2       54.8      29.78       0.00       0.00      0.000
5:30am            191          0          0         39       82.4       55.0      29.78       0.00       0.00      0.000
5:35am            191          0          0         38       82.4       54.3      29.78       0.00       0.00      0.000
5:40am            191          0          1         38       82.4       54.3      29.78       0.00       0.00      0.000
5:45am            191          0          0         37       82.4       53.5      29.78       0.00       0.00      0.000
5:50am            145          0          2         37       82.6       53.7      29.78       0.00       0.00      0.000
5:55am            117          1          2         37       82.8       53.9      29.78       0.00       0.00      0.000
6:00am             93          0          2         38       83.2       55.0      29.79       0.00       0.00      0.000
6:05am             93          0          0         38       83.2       55.0      29.79       0.00       0.00      0.000
6:10am            162          0          1         38       83.0       54.8      29.79       0.00       0.00      0.000
6:15am            162          0          1         38       82.8       54.6      29.80       0.00       0.00      0.000
6:20am            161          0          0         38       82.8       54.6      29.80       0.00       0.00      0.000
6:25am            161          0          1         38       83.2       55.0      29.80       0.00       0.00      0.000
6:30am            161          0          2         38       83.4       55.2      29.80       0.00       0.00      0.000
6:35am            102          0          3         38       83.8       55.5      29.80       0.00       0.00      0.000
6:40am             83          2          3         38       84.0       55.7      29.80       0.00       0.00      0.000
6:45am            326          0          2         38       84.3       56.0      29.80       0.00       0.00      0.000
6:50am             71          0          2         38       84.5       56.1      29.80       0.00       0.00      0.000
6:55am             71          0          0         38       84.7       56.3      29.80       0.00       0.00      0.000
7:00am             71          0          0         38       84.7       56.3      29.80       0.00       0.00      0.000
7:05am             71          0          0         38       85.1       56.7      29.80       0.00       0.00      0.000
7:10am             71          1          1         37       85.9       56.6      29.80       0.00       0.00      0.000
7:15am             69          1          3         37       86.5       57.2      29.80       0.00       0.00      0.000
7:20am             69          1          3         36       87.2       57.0      29.80       0.00       0.00      0.000
7:25am             82          1          4         35       87.8       56.8      29.80       0.00       0.00      0.000
7:30am            109          1          5         35       88.2       57.1      29.81       0.00       0.00      0.000
7:35am             96          2          3         34       88.8       56.8      29.81       0.00       0.00      0.000
7:40am             90          1          4         34       89.3       57.3      29.81       0.00       0.00      0.000
7:45am            121          2          6         33       89.7       56.8      29.81       0.00       0.00      0.000
7:50am            110          2          5         32       90.1       56.3      29.81       0.00       0.00      0.000
7:55am             99          1          4         32       90.5       56.6      29.81       0.00       0.00      0.000
8:00am             79          0          5         31       90.7       55.9      29.81       0.00       0.00      0.000
8:05am             96          0          4         31       91.0       56.2      29.81       0.00       0.00      0.000
8:10am             96          0          2         31       91.4       56.5      29.81       0.00       0.00      0.000
8:15am             96          1          6         30       92.1       56.2      29.82       0.00       0.00      0.000
8:20am             97          2          5         30       92.3       56.4      29.82       0.00       0.00      0.000
8:25am             62          0          6         30       92.5       56.6      29.82       0.00       0.00      0.000
8:30am             99          4          6         29       92.9       56.0      29.82       0.00       0.00      0.000
8:35am             96          1          5         29       92.9       56.0      29.82       0.00       0.00      0.000
8:40am             97          6          6         28       93.4       55.5      29.82       0.00       0.00      0.000
8:45am             99          2          6         28       93.4       55.5      29.82       0.00       0.00      0.000
8:50am             86          2          6         28       93.8       55.8      29.82       0.00       0.00      0.000
8:55am             86          1          2         28       94.3       56.2      29.82       0.00       0.00      0.000
9:00am            104          5          6         28       94.5       56.4      29.82       0.00       0.00      0.000
9:05am            103          0          6         27       94.3       55.2      29.82       0.00       0.00      0.000
9:10am             80          2          7         28       94.3       56.2      29.82       0.00       0.00      0.000
9:15am             41          2          7         27       94.9       55.7      29.82       0.00       0.00      0.000
9:20am            110          3          6         27       95.9       56.6      29.82       0.00       0.00      0.000
9:25am            120          0          5         27       95.6       56.3      29.82       0.00       0.00      0.000
9:30am            109          5          5         26       96.1       55.7      29.82       0.00       0.00      0.000
9:35am             89          1          6         26       96.1       55.7      29.82       0.00       0.00      0.000
9:40am             85          2          3         26       96.1       55.7      29.82       0.00       0.00      0.000
9:45am             82          0          4         25       96.8       55.2      29.82       0.00       0.00      0.000
9:50am             55          1          3         24       97.3       54.5      29.82       0.00       0.00      0.000
9:55am             56          3          3         25       97.3       55.6      29.82       0.00       0.00      0.000
10:00am            68          3          4         25       97.5       55.8      29.82       0.00       0.00      0.000
10:05am            68          0          3         23       98.0       53.9      29.82       0.00       0.00      0.000
10:10am            68          1          2         24       98.7       55.7      29.82       0.00       0.00      0.000
10:15am           112          5          6         24       98.7       55.7      29.82       0.00       0.00      0.000
10:20am            71          2          6         23       98.2       54.1      29.82       0.00       0.00      0.000
10:25am           117          3          5         24       98.0       55.1      29.82       0.00       0.00      0.000
10:30am           119          2          4         24       98.0       55.1      29.82       0.00       0.00      0.000
10:35am           164          3          7         24       97.5       54.7      29.82       0.00       0.00      0.000
10:40am           138          2          6         24       97.5       54.7      29.82       0.00       0.00      0.000
10:45am           124          3          5         24       97.8       54.9      29.82       0.00       0.00      0.000
10:50am           104          2          3         23       98.2       54.1      29.82       0.00       0.00      0.000
10:55am           233          1          6         23       98.2       54.1      29.82       0.00       0.00      0.000
11:00am           168          2          2         24       98.7       55.7      29.81       0.00       0.00      0.000
11:05am           126          0          4         23       99.4       55.1      29.81       0.00       0.00      0.000
11:10am            31          1          5         22       99.7       54.1      29.81       0.00       0.00      0.000
11:15am           158          3          6         22       99.7       54.1      29.81       0.00       0.00      0.000
11:20am            35          1          6         23       99.4       55.1      29.81       0.00       0.00      0.000
11:25am            24          2          3         22       99.9       54.3      29.81       0.00       0.00      0.000
11:30am            76          0          5         23      100.4       55.9      29.80       0.00       0.00      0.000
11:35am           267          0          5         21      101.0       53.9      29.80       0.00       0.00      0.000
11:40am           257          4          5         21      101.5       54.3      29.80       0.00       0.00      0.000
11:45am           257          1          4         21      101.0       53.9      29.80       0.00       0.00      0.000
11:50am           325          7          7         22      100.2       54.5      29.80       0.00       0.00      0.000
11:55am            21          1          7         22       99.7       54.1      29.80       0.00       0.00      0.000
12:00pm            21          1          5         22      100.2       54.5      29.78       0.00       0.00      0.000
12:05pm            32          2          8         21      100.7       53.7      29.78       0.00       0.00      0.000
12:10pm            40          2          4         20      101.5       53.0      29.78       0.00       0.00      0.000
12:15pm           185          6          8         20      101.7       53.2      29.77       0.00       0.00      0.000
12:20pm           233          0          6         20      101.2       52.8      29.77       0.00       0.00      0.000
12:25pm           209          5          7         20      101.2       52.8      29.77       0.00       0.00      0.000
12:30pm           264          5          5         20      101.7       53.2      29.77       0.00       0.00      0.000
12:35pm           243          4          7         19      102.0       52.0      29.77       0.00       0.00      0.000
12:40pm           278          2          7         19      102.0       52.0      29.77       0.00       0.00      0.000
12:45pm           337          5          7         19      101.7       51.8      29.76       0.00       0.00      0.000
12:50pm           354          3          7         20      101.5       53.0      29.76       0.00       0.00      0.000
12:55pm           277          3          7         20      101.5       53.0      29.76       0.00       0.00      0.000
1:00pm            278          2          5         20      101.7       53.2      29.75       0.00       0.00      0.000
1:05pm             73          3          5         21      102.3       55.0      29.75       0.00       0.00      0.000
1:10pm             49          2          4         19      103.1       52.9      29.75       0.00       0.00      0.000
1:15pm            359          3          8         19      103.1       52.9      29.74       0.00       0.00      0.000
1:20pm            333          6         10         19      102.3       52.3      29.74       0.00       0.00      0.000
1:25pm            220          1          7         19      102.5       52.4      29.74       0.00       0.00      0.000
1:30pm            278          2          8         19      102.8       52.7      29.73       0.00       0.00      0.000
1:35pm            342          3          7         19      103.3       53.1      29.73       0.00       0.00      0.000
1:40pm            272          3          8         19      103.3       53.1      29.73       0.00       0.00      0.000
1:45pm            343          2          6         19      103.3       53.1      29.72       0.00       0.00      0.000
1:50pm            256          1          7         18      103.3       51.6      29.72       0.00       0.00      0.000
1:55pm            278          1          7         18      103.1       51.4      29.72       0.00       0.00      0.000